Eau Claire, WI

5:15 AM CDT on September 20, 2017 (GMT -0500)
Chippewa Valley Regional

Weather History for KEAU - September, 2014

Change the Weather History Date:

Monday, September 29, 2014

  Actual Average Record
Temperature  
Mean Temperature 52 °F 54 °F  
Max Temperature 61 °F 66 °F 89 °F (1898)
Min Temperature 42 °F 43 °F 23 °F (1967)
Degree Days  
Heating Degree Days 13 11  
Month to date heating degree days 171 181  
Since 1 July heating degree days 194 220  
Cooling Degree Days 0 0  
Month to date cooling degree days 22 48  
Year to date cooling degree days 500 575  
Growing Degree Days 2 (Base 50)    
Moisture  
Dew Point 47 °F    
Average Humidity 74    
Maximum Humidity 93    
Minimum Humidity 55    
Precipitation  
Precipitation T in 0.11 in 0.86 in (1985)
Month to date precipitation 5.46 3.58  
Year to date precipitation 38.13 25.70  
Snow  
Snow 0.00 in 0.00 in T in (1899)
Month to date snowfall 0.0 0.0  
Since 1 July snowfall 0.0 0.0  
Since 1 September snowfall 0.0 0.0  
Snow Depth 0.00 in    
Sea Level Pressure  
Sea Level Pressure 30.08 in    
Wind  
Wind Speed 9 mph (NNE)    
Max Wind Speed 15 mph    
Max Gust Speed 21 mph    
Visibility 8 miles    
Events Rain    
T = Trace of Precipitation, MM = Missing Value Source: NWS Daily Summary

Daily Weather History Graph

Daily Weather History Graph

Search for Another Location

Airport or City:

Trip Planner

Search our weather history database for the weather conditions in past years. The results will help you decide how hot, cold, wet, or windy it might be!

Date:

Astronomy

Sep. 29, 2014 Rise Set
Actual Time 7:01 AM CDT 6:50 PM CDT
Civil Twilight 6:32 AM CDT 7:19 PM CDT
Nautical Twilight 5:58 AM CDT 7:53 PM CDT
Astronomical Twilight 5:23 AM CDT 8:27 PM CDT
Moon 12:25 PM CDT (9/29) 10:13 PM CDT (9/29)
Length of Visible Light 12h 46m
Length of Day
11h 48m
Waxing Crescent, 28% of the Moon is Illuminated
Sep 29
Waxing Crescent
Oct 1
First Quarter
Oct 8
Full
Oct 15
Last Quarter
Oct 23
New

Hourly Weather History & Observations

Time (CDT) Temp. Windchill Dew Point Humidity Pressure Visibility Wind Dir Wind Speed Gust Speed Precip Events Conditions
12:17 AM 57.0 °F - 55.0 °F 93% 30.02 in 2.0 mi Calm Calm - N/A   Clear
12:30 AM 57.9 °F - 55.9 °F 93% 30.02 in 4.0 mi Calm Calm - N/A   Clear
12:56 AM 59.0 °F - 57.0 °F 93% 30.01 in 4.0 mi Calm Calm - N/A   Scattered Clouds
1:56 AM 57.0 °F - 55.9 °F 96% 30.00 in 4.0 mi WSW 3.5 mph - N/A   Clear
2:56 AM 57.9 °F - 55.9 °F 93% 30.00 in 5.0 mi WSW 4.6 mph - N/A   Mostly Cloudy
3:56 AM 57.9 °F - 55.9 °F 93% 30.00 in 6.0 mi Calm Calm - N/A   Clear
4:50 AM 55.4 °F - 53.6 °F 94% 30.01 in 1.8 mi WNW 3.5 mph - N/A   Clear
4:54 AM 55.4 °F - 53.6 °F 94% 30.01 in 1.0 mi WNW 3.5 mph - N/A   Mist
4:56 AM 55.0 °F - 54.0 °F 96% 30.00 in 0.8 mi West 3.5 mph - N/A   Mist
5:15 AM 55.0 °F - 54.0 °F 96% 30.01 in 3.0 mi North 5.8 mph - N/A   Partly Cloudy
5:54 AM 57.2 °F - 55.4 °F 94% 30.02 in 8.0 mi NNE 6.9 mph - N/A   Mostly Cloudy
5:56 AM 57.9 °F - 55.9 °F 93% 30.01 in 7.0 mi NNE 6.9 mph - N/A   Mostly Cloudy
6:56 AM 55.0 °F - 51.1 °F 86% 30.04 in 10.0 mi NNE 10.4 mph - N/A   Overcast
7:24 AM 53.1 °F - 48.9 °F 86% 30.06 in 10.0 mi North 9.2 mph - N/A   Overcast
7:56 AM 52.0 °F - 46.9 °F 83% 30.08 in 10.0 mi North 8.1 mph - N/A   Mostly Cloudy
8:08 AM 52.0 °F - 46.0 °F 80% 30.08 in 10.0 mi NNE 10.4 mph - N/A   Scattered Clouds
8:15 AM 52.0 °F - 46.0 °F 80% 30.08 in 10.0 mi North 11.5 mph - N/A   Mostly Cloudy
8:25 AM 51.1 °F - 45.0 °F 80% 30.08 in 10.0 mi North 12.7 mph - N/A   Mostly Cloudy
8:56 AM 51.1 °F - 45.0 °F 80% 30.09 in 10.0 mi North 12.7 mph 20.7 mph N/A   Overcast
9:56 AM 50.0 °F - 44.1 °F 80% 30.12 in 10.0 mi North 13.8 mph - N/A   Overcast
10:51 AM 51.8 °F - 44.6 °F 76% 30.11 in 10.0 mi NNE 15.0 mph - N/A   Overcast
10:56 AM 51.1 °F - 44.1 °F 77% 30.12 in 10.0 mi NNE 13.8 mph - N/A   Overcast
11:30 AM 51.1 °F - 43.0 °F 74% 30.12 in 10.0 mi NNE 10.4 mph - N/A   Overcast
11:52 AM 51.8 °F - 44.6 °F 76% 30.12 in 10.0 mi Variable 6.9 mph - N/A   Overcast
11:56 AM 51.1 °F - 44.1 °F 77% 30.13 in 10.0 mi North 11.5 mph - N/A   Overcast
12:08 PM 51.1 °F - 44.1 °F 77% 30.12 in 10.0 mi NNE 9.2 mph - 0.00 in Rain Light Rain
12:56 PM 55.0 °F - 44.1 °F 67% 30.12 in 10.0 mi NNE 10.4 mph - 0.00 in   Overcast
1:56 PM 57.9 °F - 45.0 °F 62% 30.10 in 10.0 mi NNE 11.5 mph - N/A   Overcast
2:19 PM 60.1 °F - 45.0 °F 57% 30.09 in 10.0 mi NE 8.1 mph - N/A   Scattered Clouds
2:56 PM 60.1 °F - 45.0 °F 57% 30.09 in 10.0 mi North 10.4 mph - N/A   Scattered Clouds
3:56 PM 60.1 °F - 44.1 °F 55% 30.09 in 10.0 mi North 10.4 mph - N/A   Scattered Clouds
4:56 PM 60.1 °F - 44.1 °F 55% 30.09 in 10.0 mi NNE 10.4 mph - N/A   Clear
5:56 PM 57.9 °F - 43.0 °F 58% 30.09 in 10.0 mi North 9.2 mph - N/A   Clear
6:56 PM 53.1 °F - 42.1 °F 66% 30.10 in 10.0 mi NNE 6.9 mph - N/A   Clear
7:56 PM 50.0 °F - 41.0 °F 71% 30.12 in 10.0 mi NNE 6.9 mph - N/A   Clear
8:56 PM 46.9 °F - 39.0 °F 74% 30.13 in 10.0 mi NNE 11.5 mph - N/A   Clear
9:56 PM 45.0 °F 40.6 °F 39.0 °F 80% 30.13 in 10.0 mi NE 8.1 mph - N/A   Clear
10:56 PM 43.0 °F 36.0 °F 37.0 °F 80% 30.13 in 10.0 mi NE 13.8 mph - N/A   Clear
11:15 PM 44.1 °F 38.6 °F 37.9 °F 79% 30.11 in 10.0 mi NE 10.4 mph 19.6 mph N/A   Mostly Cloudy
11:43 PM 44.1 °F 38.6 °F 37.0 °F 76% 30.11 in 10.0 mi NE 10.4 mph - N/A   Overcast
11:56 PM 44.1 °F 37.7 °F 37.0 °F 76% 30.13 in 10.0 mi NE 12.7 mph - N/A   Overcast